Time,TemperatureF,DewpointF,PressureIn,WindDirection,WindDirectionDegrees,WindSpeedMPH,WindSpeedGustMPH,Humidity,HourlyPrecipIn,Conditions,Clouds,dailyrainin,SoftwareType,DateUTC
2013-02-10 00:01:00,64.0,61.0,30.03,East,98,3.0,8.0,91,0.00,,,0.00,,2013-02-10 06:01:00,
2013-02-10 00:11:00,64.0,61.0,30.03,East,98,3.0,8.0,91,0.00,,,0.00,,2013-02-10 06:11:00,
2013-02-10 00:21:00,64.0,61.0,30.03,ESE,110,2.0,8.0,91,0.00,,,0.00,,2013-02-10 06:21:00,
2013-02-10 00:32:00,64.0,61.0,30.04,SE,144,1.0,3.0,91,0.00,,,0.00,,2013-02-10 06:32:00,
2013-02-10 00:42:00,64.0,61.0,30.04,SE,144,1.0,3.0,91,0.00,,,0.00,,2013-02-10 06:42:00,
2013-02-10 00:51:00,64.0,61.0,30.03,ESE,121,3.0,9.0,91,0.00,,,0.00,,2013-02-10 06:51:00,
2013-02-10 01:01:00,65.0,62.0,30.02,ESE,117,2.0,10.0,90,0.00,,,0.00,,2013-02-10 07:01:00,
2013-02-10 01:11:00,65.0,62.0,30.02,ESE,117,2.0,10.0,90,0.00,,,0.00,,2013-02-10 07:11:00,
2013-02-10 01:21:00,65.0,62.0,30.02,ESE,117,2.0,10.0,90,0.00,,,0.00,,2013-02-10 07:21:00,
2013-02-10 01:31:00,65.0,61.0,30.04,ESE,116,5.0,12.0,88,0.00,,,0.00,,2013-02-10 07:31:00,
2013-02-10 01:42:00,65.0,61.0,30.04,ESE,116,5.0,12.0,88,0.00,,,0.00,,2013-02-10 07:42:00,
2013-02-10 01:52:00,65.0,62.0,30.03,ESE,115,3.0,12.0,89,0.00,,,0.00,,2013-02-10 07:52:00,
2013-02-10 02:01:00,65.0,62.0,30.02,ESE,109,5.0,12.0,89,0.00,,,0.00,,2013-02-10 08:01:00,
2013-02-10 02:11:00,65.0,62.0,30.02,ESE,109,5.0,12.0,89,0.00,,,0.00,,2013-02-10 08:11:00,
2013-02-10 02:21:00,65.0,62.0,30.02,SE,130,4.0,10.0,89,0.00,,,0.00,,2013-02-10 08:21:00,
2013-02-10 02:32:00,65.0,62.0,30.01,ESE,119,6.0,15.0,89,0.00,,,0.00,,2013-02-10 08:32:00,
2013-02-10 02:43:00,65.0,62.0,30.01,ESE,119,6.0,15.0,89,0.00,,,0.00,,2013-02-10 08:43:00,
2013-02-10 02:52:00,65.0,62.0,30.01,ESE,119,6.0,15.0,89,0.00,,,0.00,,2013-02-10 08:52:00,
2013-02-10 03:02:00,65.0,62.0,30.01,ESE,104,5.0,12.0,90,0.01,,,0.01,,2013-02-10 09:02:00,
2013-02-10 03:11:00,65.0,62.0,30.01,ESE,104,5.0,12.0,90,0.01,,,0.01,,2013-02-10 09:11:00,
2013-02-10 03:21:00,65.0,62.0,30.01,ESE,104,5.0,12.0,90,0.01,,,0.01,,2013-02-10 09:21:00,
2013-02-10 03:32:00,65.0,62.0,30.00,ESE,110,7.0,15.0,90,0.02,,,0.02,,2013-02-10 09:32:00,
2013-02-10 03:41:00,65.0,62.0,30.00,ESE,110,7.0,15.0,90,0.02,,,0.02,,2013-02-10 09:41:00,
2013-02-10 03:52:00,65.0,62.0,29.99,East,98,6.0,14.0,90,0.02,,,0.02,,2013-02-10 09:52:00,
2013-02-10 04:01:00,65.0,62.0,29.99,SE,128,5.0,13.0,90,0.02,,,0.02,,2013-02-10 10:01:00,
2013-02-10 04:11:00,65.0,62.0,29.99,SE,128,5.0,13.0,90,0.02,,,0.02,,2013-02-10 10:11:00,
2013-02-10 04:21:00,65.0,62.0,29.98,SE,138,6.0,14.0,90,0.01,,,0.02,,2013-02-10 10:21:00,
2013-02-10 04:31:00,65.0,62.0,29.98,ESE,116,5.0,10.0,90,0.01,,,0.02,,2013-02-10 10:31:00,
2013-02-10 04:42:00,65.0,62.0,29.98,ESE,116,5.0,10.0,90,0.01,,,0.02,,2013-02-10 10:42:00,
2013-02-10 04:51:00,65.0,62.0,29.97,SE,128,6.0,13.0,89,0.00,,,0.02,,2013-02-10 10:51:00,
2013-02-10 05:01:00,65.0,62.0,29.97,ESE,109,6.0,14.0,90,0.00,,,0.02,,2013-02-10 11:01:00,
2013-02-10 05:11:00,65.0,62.0,29.97,ESE,109,6.0,14.0,90,0.00,,,0.02,,2013-02-10 11:11:00,
2013-02-10 05:21:00,65.0,62.0,29.97,SE,131,4.0,12.0,90,0.00,,,0.02,,2013-02-10 11:21:00,
2013-02-10 05:32:00,65.0,62.0,29.98,SE,131,7.0,14.0,90,0.00,,,0.02,,2013-02-10 11:32:00,
2013-02-10 05:42:00,65.0,62.0,29.98,SE,131,7.0,14.0,90,0.00,,,0.02,,2013-02-10 11:42:00,
2013-02-10 05:52:00,65.0,62.0,29.98,SE,129,6.0,13.0,90,0.00,,,0.02,,2013-02-10 11:52:00,
2013-02-10 06:02:00,66.0,63.0,29.99,SE,124,4.0,14.0,90,0.00,,,0.02,,2013-02-10 12:02:00,
2013-02-10 06:12:00,66.0,63.0,29.99,SE,124,4.0,14.0,90,0.00,,,0.02,,2013-02-10 12:12:00,
2013-02-10 06:21:00,66.0,63.0,29.99,SSE,148,5.0,14.0,90,0.00,,,0.02,,2013-02-10 12:21:00,
2013-02-10 06:32:00,66.0,63.0,29.99,SSE,167,6.0,12.0,90,0.00,,,0.02,,2013-02-10 12:32:00,
2013-02-10 06:42:00,66.0,63.0,29.99,SSE,167,6.0,12.0,90,0.00,,,0.02,,2013-02-10 12:42:00,
2013-02-10 06:52:00,66.0,63.0,29.98,SE,135,5.0,13.0,90,0.00,,,0.02,,2013-02-10 12:52:00,
2013-02-10 07:02:00,66.0,63.0,29.98,SE,135,5.0,13.0,90,0.00,,,0.02,,2013-02-10 13:02:00,
2013-02-10 07:11:00,66.0,63.0,29.98,SE,135,5.0,13.0,90,0.00,,,0.02,,2013-02-10 13:11:00,
2013-02-10 07:21:00,66.0,63.0,29.98,SE,135,5.0,13.0,90,0.00,,,0.02,,2013-02-10 13:21:00,
2013-02-10 07:32:00,66.0,63.0,29.99,SE,126,4.0,12.0,90,0.00,,,0.02,,2013-02-10 13:32:00,
2013-02-10 07:42:00,66.0,63.0,29.99,SE,126,4.0,12.0,90,0.00,,,0.02,,2013-02-10 13:42:00,
2013-02-10 07:52:00,66.0,63.0,30.00,ESE,106,5.0,12.0,90,0.00,,,0.02,,2013-02-10 13:52:00,
2013-02-10 08:02:00,67.0,64.0,30.01,SSE,150,5.0,12.0,90,0.00,,,0.02,,2013-02-10 14:02:00,
2013-02-10 08:11:00,67.0,64.0,30.01,SSE,150,5.0,12.0,90,0.00,,,0.02,,2013-02-10 14:11:00,
2013-02-10 08:21:00,67.0,64.0,30.00,ESE,121,5.0,12.0,90,0.00,,,0.02,,2013-02-10 14:21:00,
2013-02-10 08:32:00,67.0,64.0,30.01,SSW,195,6.0,13.0,90,0.00,,,0.02,,2013-02-10 14:32:00,
2013-02-10 08:41:00,67.0,64.0,30.01,SSW,195,6.0,13.0,90,0.00,,,0.02,,2013-02-10 14:41:00,
2013-02-10 08:52:00,68.0,65.0,30.01,SE,145,6.0,12.0,89,0.00,,,0.02,,2013-02-10 14:52:00,
2013-02-10 09:02:00,69.0,65.0,30.01,SSE,155,9.0,22.0,88,0.00,,,0.02,,2013-02-10 15:02:00,
2013-02-10 09:11:00,69.0,65.0,30.01,SSE,155,9.0,22.0,88,0.00,,,0.02,,2013-02-10 15:11:00,
2013-02-10 09:21:00,70.0,66.0,30.01,East,79,7.0,16.0,86,0.00,,,0.02,,2013-02-10 15:21:00,
2013-02-10 09:32:00,70.0,66.0,30.00,ENE,74,8.0,20.0,86,0.00,,,0.02,,2013-02-10 15:32:00,
2013-02-10 09:42:00,70.0,66.0,30.00,ENE,74,8.0,20.0,86,0.00,,,0.02,,2013-02-10 15:42:00,
2013-02-10 09:52:00,70.0,66.0,30.00,ENE,74,8.0,20.0,86,0.00,,,0.02,,2013-02-10 15:52:00,
2013-02-10 10:02:00,70.0,66.0,29.99,SSE,151,7.0,20.0,86,0.00,,,0.02,,2013-02-10 16:02:00,
2013-02-10 10:11:00,70.0,66.0,29.99,SSE,151,7.0,20.0,86,0.00,,,0.02,,2013-02-10 16:11:00,
2013-02-10 10:22:00,70.0,66.0,29.99,SSE,151,7.0,20.0,86,0.00,,,0.02,,2013-02-10 16:22:00,
2013-02-10 10:32:00,70.0,66.0,29.99,SE,138,7.0,14.0,87,0.00,,,0.02,,2013-02-10 16:32:00,
2013-02-10 10:42:00,70.0,66.0,29.99,SSE,155,9.0,18.0,87,0.00,,,0.02,,2013-02-10 16:42:00,
2013-02-10 10:52:00,70.0,66.0,29.99,SSE,155,9.0,18.0,87,0.00,,,0.02,,2013-02-10 16:52:00,
2013-02-10 11:01:00,71.0,67.0,29.98,ESE,108,7.0,14.0,87,0.00,,,0.02,,2013-02-10 17:01:00,
2013-02-10 11:11:00,71.0,67.0,29.98,ESE,108,7.0,14.0,87,0.00,,,0.02,,2013-02-10 17:11:00,
2013-02-10 11:21:00,71.0,67.0,29.97,SE,139,6.0,20.0,87,0.00,,,0.02,,2013-02-10 17:21:00,
2013-02-10 11:32:00,71.0,67.0,29.97,East,96,5.0,13.0,86,0.00,,,0.02,,2013-02-10 17:32:00,
2013-02-10 11:42:00,71.0,67.0,29.96,ESE,117,7.0,16.0,86,0.00,,,0.02,,2013-02-10 17:42:00,
2013-02-10 11:52:00,71.0,67.0,29.96,ESE,117,7.0,16.0,86,0.00,,,0.02,,2013-02-10 17:52:00,
2013-02-10 12:02:00,71.0,67.0,29.95,ESE,123,5.0,14.0,87,0.00,,,0.02,,2013-02-10 18:02:00,
2013-02-10 12:11:00,72.0,68.0,29.96,SSE,152,4.0,15.0,87,0.00,,,0.02,,2013-02-10 18:11:00,
2013-02-10 12:22:00,72.0,68.0,29.96,SSE,152,4.0,15.0,87,0.00,,,0.02,,2013-02-10 18:22:00,
2013-02-10 12:32:00,72.0,68.0,29.96,SW,217,8.0,16.0,87,0.00,,,0.02,,2013-02-10 18:32:00,
2013-02-10 12:42:00,72.0,68.0,29.96,SW,217,8.0,16.0,87,0.00,,,0.02,,2013-02-10 18:42:00,
2013-02-10 12:52:00,72.0,68.0,29.95,SSW,203,6.0,16.0,87,0.00,,,0.02,,2013-02-10 18:52:00,
2013-02-10 13:02:00,72.0,68.0,29.95,SE,135,5.0,10.0,87,0.00,,,0.02,,2013-02-10 19:02:00,
2013-02-10 13:11:00,72.0,69.0,29.94,South,180,4.0,13.0,89,0.00,,,0.02,,2013-02-10 19:11:00,
2013-02-10 13:22:00,72.0,69.0,29.94,South,180,4.0,13.0,89,0.00,,,0.02,,2013-02-10 19:22:00,
2013-02-10 13:32:00,72.0,68.0,29.94,SSE,152,4.0,13.0,88,0.00,,,0.02,,2013-02-10 19:32:00,
2013-02-10 13:42:00,72.0,68.0,29.94,SSE,152,4.0,13.0,88,0.00,,,0.02,,2013-02-10 19:42:00,
2013-02-10 13:52:00,72.0,68.0,29.94,SSE,152,4.0,13.0,88,0.00,,,0.02,,2013-02-10 19:52:00,
2013-02-10 14:02:00,74.0,70.0,29.93,South,182,5.0,16.0,86,0.00,,,0.02,,2013-02-10 20:02:00,
2013-02-10 14:11:00,74.0,70.0,29.93,South,182,5.0,16.0,86,0.00,,,0.02,,2013-02-10 20:11:00,
2013-02-10 14:22:00,74.0,70.0,29.93,SSE,168,5.0,14.0,86,0.00,,,0.02,,2013-02-10 20:22:00,
2013-02-10 14:32:00,74.0,70.0,29.93,WSW,238,6.0,13.0,86,0.00,,,0.02,,2013-02-10 20:32:00,
2013-02-10 14:42:00,74.0,70.0,29.93,WSW,238,6.0,13.0,86,0.00,,,0.02,,2013-02-10 20:42:00,
2013-02-10 14:52:00,74.0,70.0,29.93,WSW,238,6.0,13.0,86,0.00,,,0.02,,2013-02-10 20:52:00,
2013-02-10 15:02:00,74.0,70.0,29.93,South,169,5.0,12.0,86,0.00,,,0.02,,2013-02-10 21:02:00,
2013-02-10 15:11:00,74.0,70.0,29.93,South,169,5.0,12.0,86,0.00,,,0.02,,2013-02-10 21:11:00,
2013-02-10 15:22:00,74.0,70.0,29.93,SE,131,6.0,15.0,86,0.00,,,0.02,,2013-02-10 21:22:00,
2013-02-10 15:32:00,74.0,70.0,29.94,SSE,160,6.0,15.0,86,0.00,,,0.02,,2013-02-10 21:32:00,
2013-02-10 15:42:00,74.0,70.0,29.94,SSE,160,6.0,15.0,86,0.00,,,0.02,,2013-02-10 21:42:00,
2013-02-10 15:51:00,74.0,70.0,29.94,SSE,160,6.0,15.0,86,0.00,,,0.02,,2013-02-10 21:51:00,
2013-02-10 16:02:00,74.0,70.0,29.94,SSE,152,6.0,12.0,87,0.00,,,0.02,,2013-02-10 22:02:00,
2013-02-10 16:11:00,74.0,70.0,29.94,SE,144,3.0,12.0,87,0.00,,,0.02,,2013-02-10 22:11:00,
2013-02-10 16:22:00,74.0,70.0,29.94,SE,144,3.0,12.0,87,0.00,,,0.02,,2013-02-10 22:22:00,
2013-02-10 16:32:00,74.0,70.0,29.94,SE,139,3.0,12.0,88,0.00,,,0.02,,2013-02-10 22:32:00,
2013-02-10 16:42:00,74.0,70.0,29.93,South,177,3.0,15.0,88,0.00,,,0.02,,2013-02-10 22:42:00,
2013-02-10 16:52:00,74.0,70.0,29.93,South,177,3.0,15.0,88,0.00,,,0.02,,2013-02-10 22:52:00,
2013-02-10 17:02:00,74.0,70.0,29.94,West,265,5.0,15.0,87,0.00,,,0.02,,2013-02-10 23:02:00,
2013-02-10 17:11:00,74.0,70.0,29.94,West,265,5.0,15.0,87,0.00,,,0.02,,2013-02-10 23:11:00,
2013-02-10 17:22:00,73.0,69.0,29.94,SSE,164,5.0,12.0,88,0.00,,,0.02,,2013-02-10 23:22:00,
2013-02-10 17:32:00,73.0,69.0,29.94,SSW,194,7.0,20.0,88,0.00,,,0.02,,2013-02-10 23:32:00,
2013-02-10 17:42:00,73.0,69.0,29.94,SSW,194,7.0,20.0,88,0.00,,,0.02,,2013-02-10 23:42:00,
2013-02-10 17:52:00,73.0,69.0,29.94,SSW,194,7.0,20.0,88,0.00,,,0.02,,2013-02-10 23:52:00,
2013-02-10 18:02:00,73.0,70.0,29.94,SSW,198,3.0,15.0,89,0.00,,,0.02,,2013-02-11 00:02:00,
2013-02-10 18:11:00,72.0,69.0,29.95,SSE,148,3.0,12.0,90,0.00,,,0.02,,2013-02-11 00:11:00,
2013-02-10 18:22:00,72.0,69.0,29.95,SSE,148,3.0,12.0,90,0.00,,,0.02,,2013-02-11 00:22:00,
2013-02-10 18:32:00,71.0,68.0,29.96,SSW,195,3.0,10.0,91,0.00,,,0.02,,2013-02-11 00:32:00,
2013-02-10 18:42:00,71.0,68.0,29.96,SSW,195,3.0,10.0,91,0.00,,,0.02,,2013-02-11 00:42:00,
2013-02-10 18:51:00,71.0,68.0,29.96,SSW,207,4.0,9.0,91,0.00,,,0.02,,2013-02-11 00:51:00,
2013-02-10 19:01:00,71.0,68.0,29.96,SSE,168,2.0,6.0,91,0.00,,,0.02,,2013-02-11 01:01:00,
2013-02-10 19:11:00,71.0,68.0,29.96,SSE,168,2.0,6.0,91,0.00,,,0.02,,2013-02-11 01:11:00,
2013-02-10 19:21:00,71.0,69.0,29.97,WSW,245,3.0,7.0,92,0.00,,,0.02,,2013-02-11 01:21:00,
2013-02-10 19:32:00,71.0,69.0,29.97,SSE,151,2.0,5.0,92,0.00,,,0.02,,2013-02-11 01:32:00,
2013-02-10 19:41:00,71.0,69.0,29.97,SSE,156,3.0,7.0,93,0.00,,,0.02,,2013-02-11 01:41:00,
2013-02-10 19:52:00,71.0,69.0,29.97,SSE,156,3.0,7.0,93,0.00,,,0.02,,2013-02-11 01:52:00,
2013-02-10 20:01:00,71.0,69.0,29.98,SE,127,2.0,7.0,92,0.00,,,0.02,,2013-02-11 02:01:00,
2013-02-10 20:11:00,71.0,69.0,29.98,SE,127,2.0,7.0,92,0.00,,,0.02,,2013-02-11 02:11:00,
2013-02-10 20:21:00,71.0,69.0,29.98,SSE,161,2.0,5.0,93,0.00,,,0.02,,2013-02-11 02:21:00,
2013-02-10 20:31:00,70.0,68.0,29.98,SSE,150,3.0,8.0,93,0.00,,,0.02,,2013-02-11 02:31:00,
2013-02-10 20:42:00,70.0,68.0,29.99,South,169,3.0,7.0,93,0.00,,,0.02,,2013-02-11 02:42:00,
2013-02-10 20:52:00,70.0,68.0,29.99,South,169,3.0,7.0,93,0.00,,,0.02,,2013-02-11 02:52:00,
2013-02-10 21:02:00,70.0,68.0,29.99,SE,134,2.0,7.0,93,0.00,,,0.02,,2013-02-11 03:02:00,
2013-02-10 21:11:00,70.0,68.0,29.99,SE,134,2.0,7.0,93,0.00,,,0.02,,2013-02-11 03:11:00,
2013-02-10 21:21:00,70.0,68.0,29.99,SSE,155,2.0,7.0,94,0.00,,,0.02,,2013-02-11 03:21:00,
2013-02-10 21:31:00,70.0,68.0,29.99,SSW,208,3.0,7.0,94,0.00,,,0.02,,2013-02-11 03:31:00,
2013-02-10 21:42:00,70.0,68.0,29.99,SSW,208,3.0,7.0,94,0.00,,,0.02,,2013-02-11 03:42:00,
2013-02-10 21:52:00,70.0,68.0,29.99,SSW,208,3.0,7.0,94,0.00,,,0.02,,2013-02-11 03:52:00,
2013-02-10 22:01:00,70.0,68.0,29.99,SSE,161,2.0,9.0,94,0.00,,,0.02,,2013-02-11 04:01:00,
2013-02-10 22:11:00,70.0,68.0,29.99,SSE,161,2.0,9.0,94,0.00,,,0.02,,2013-02-11 04:11:00,
2013-02-10 22:21:00,70.0,68.0,29.99,SW,229,2.0,8.0,94,0.00,,,0.02,,2013-02-11 04:21:00,
2013-02-10 22:32:00,70.0,68.0,30.00,SW,221,3.0,8.0,93,0.00,,,0.02,,2013-02-11 04:32:00,
2013-02-10 22:42:00,70.0,68.0,30.00,SW,221,3.0,8.0,93,0.00,,,0.02,,2013-02-11 04:42:00,
2013-02-10 22:51:00,70.0,68.0,30.00,ESE,120,3.0,12.0,93,0.00,,,0.02,,2013-02-11 04:51:00,
2013-02-10 23:01:00,70.0,68.0,30.00,WSW,243,4.0,13.0,93,0.00,,,0.02,,2013-02-11 05:01:00,
2013-02-10 23:12:00,70.0,68.0,30.01,South,178,3.0,10.0,93,0.00,,,0.02,,2013-02-11 05:12:00,
2013-02-10 23:22:00,70.0,68.0,30.01,South,178,3.0,10.0,93,0.00,,,0.02,,2013-02-11 05:22:00,
2013-02-10 23:32:00,70.0,68.0,30.01,SW,225,1.0,5.0,93,0.00,,,0.02,,2013-02-11 05:32:00,
2013-02-10 23:42:00,70.0,68.0,30.01,SW,225,1.0,5.0,93,0.00,,,0.02,,2013-02-11 05:42:00,
2013-02-10 23:52:00,70.0,68.0,30.01,SW,225,1.0,5.0,93,0.00,,,0.02,,2013-02-11 05:52:00,